Location: Montclair
(37.8322°N, 122.2092°W)
Time: 23:09:01
(UTC+00:00)

Cosmos 1867 - Pass Details

Date: 14 December 2024
Orbit: 773 x 801 km, 65.0° (Epoch: 19 January)

Event Time Altitude Azimuth Distance (km) Brightness Sun altitude
Exits shadow 14:21:28 13° 308° (NW) 2,192 5.3 -10.7°
Maximum altitude 14:22:31 13° 321° (NW) 2,155 5.3 -10.5°
Drops below altitude 10° 14:25:03 10° 349° (NNW) 2,378 5.7 -10.1°
Sets 14:28:57 0° 16° (NNE) 3,314 6.7 -9.4°
